Погода в Заркенте

Узбекистан     40°18′45″N   66°43′55″E
темп.,
°C
ветер,
м/с
пор.,
м/с
влажн.,
%
обл.,
%
осадки,
мм/ч
давл.,
гПа
погр.,
м
14 августа, вс
вс1423:00+23ссв48230 0.0 1006116
02:00+22ссв47310 0.0 100699
05:00+21ссв33340 0.0 100634
08:00+26св35240 0.0 1006372
11:00+32всв43160 0.0 10051355
14:00+34в55140 0.0 10042222
17:00+34всв53140 0.0 10032217
20:00+27ссв45190 0.0 100363
15 августа, пн
пн1523:00+25с45210 0.0 100350
02:00+23с33250 0.0 100318
05:00+22с22280 0.0 100312
08:00+29в01190 0.0 1004193
11:00+34юз33130 0.0 10031992
14:00+36зюз55110 0.0 10022940
17:00+36зсз43100 0.0 10023051
20:00+29ссв510170 0.0 1003159
16 августа, вт
вт1623:00+27ссв58180 0.0 1004121
02:00+25ссв33210 0.0 100424
05:00+24ссв33250 0.0 100522
08:00+29св36190 0.0 1006390
11:00+34св75140 0.0 10052112
14:00+34св75140 0.0 10052639
17:00+34ссв75130 0.0 10043156
20:00+29ссв612180 0.0 1005283
17 августа, ср
ср1723:00+27ссв713210 0.0 1006342
02:00+23ссв44280 0.0 100654
05:00+22ссв33300 0.0 100626
08:00+28св510210 0.0 1007671
11:00+32св87160 0.0 10061476
14:00+33ссв75130 0.0 10051957
17:00+32ссв87100 0.0 10051797
20:00+26ссв47150 0.0 100693
18 августа, чт
чт1823:00+23ссв510180 0.0 1006201
02:00+20ссв44190 0.0 100641
05:00+19ссв44210 0.0 100647
08:00+24св46160 0.0 1006391
11:00+30св54110 0.0 10061077
14:00+32св65100 0.0 10041656
17:00+31св77100 0.0 1004997
20:00+24ссв59140 0.0 1006155